Regional Weather Roundup
Issued by NWS

Home | Current Version | Previous Version | Text Only | Print | Product List | Glossary On
Versions: 1 2 3 4 5 6 7 8 9 10 11 12 13 14 15 16 17 18 19 20 21 22 23 24 25 26 27 28 29 30 31 32 33 34 35 36 37 38 39 40 41 42 43 44 45 46 47 48 49 50
000
ASUS43 KLSX 210907
RWRMO

WEATHER SUMMARY FOR MISSOURI
NATIONAL WEATHER SERVICE SPRINGFIELD MO
400 AM CDT TUE OCT 21 2014

NOTE: "FAIR" INDICATES FEW OR NO CLOUDS BELOW 12,000 FEET WITH NO
       SIGNIFICANT WEATHER AND/OR OBSTRUCTIONS TO VISIBILITY.
       CURRENT SKY AND/OR WEATHER CONDITIONS ARE NOT AVAILABLE FOR
       CHILLICOTHE AND FARMINGTON.

MOZ001>031-035>038-043-044-053-054-211000-
...NORTHERN AND WESTERN MISSOURI...

CITY           SKY/WX    TMP DP  RH WIND       PRES   REMARKS
KANSAS CTY INT CLEAR     45  41  86 W6        30.08S
KANSAS C DTWN  CLEAR     48  45  89 NW3       30.08S
LEE`S SUMMIT   CLEAR     48  44  86 SW3       30.08S
ST JOSEPH      PTCLDY    38  37  97 N3        30.09S
CHILLICOTHE      N/A     43  40  89 CALM      30.09S
KIRKSVILLE     CLEAR     43  42  97 NW3       30.08R

$$
MOZ066>068-077>081-088>096-101>105-211000-
...SOUTHWEST MISSOURI...

CITY           SKY/WX    TMP DP  RH WIND       PRES   REMARKS
SPRINGFIELD    CLEAR     46  43  89 S3        30.08F
JOPLIN         CLEAR     50  50 100 NE5       30.08F FOG

$$
MOZ032>034-039>042-045>050-055>058-069>072-211000-
...CENTRAL MISSOURI...

CITY           SKY/WX    TMP DP  RH WIND       PRES   REMARKS
COLUMBIA       CLEAR     51  43  74 W6        30.06F
JEFFERSON CITY CLEAR     44  42  93 CALM      30.07S
ROLLA          CLEAR     47  42  83 SW3       30.06S
SEDALIA        CLEAR     49  43  80 SW5       30.07F
WHITEMAN AFB   CLEAR     45  41  88 SW1       30.06F
OSAGE BEACH    CLEAR     45  39  81 CALM      30.08S

$$
MOZ051-052-059>065-211000-
...EAST CENTRAL MISSOURI...

CITY           SKY/WX    TMP DP  RH WIND       PRES   REMARKS
ST LOUIS INTL  CLEAR     50  44  80 W3        30.04S
SPIRIT OF STL  FAIR      44  42  93 CALM      30.04S
ST CHARLES     CLEAR     42  41  96 SW5       30.03S

$$
MOZ072>076-082>087-097>100-106>115-211000-
...SOUTH CENTRAL AND SOUTHEAST MISSOURI...

CITY           SKY/WX    TMP DP  RH WIND       PRES   REMARKS
CAPE GIRARDEAU CLEAR     45  44  97 SW3       30.04S
FARMINGTON     CLEAR     43  39  87 CALM      30.07S
WEST PLAINS    CLEAR     48  44  86 CALM      30.09S

$$


USA.gov is the U.S. government's official web portal to all federal, state and local government web resources and services.